Regional Weather Roundup
Issued by NWS

Home | Current Version | Previous Version | Text Only | Print | Product List | Glossary On
Versions: 1 2 3 4 5 6 7 8 9 10 11 12 13 14 15 16 17 18 19 20 21 22 23 24 25 26 27 28 29 30 31 32 33 34 35 36 37 38 39 40 41 42 43 44 45 46 47 48 49 50
000
ASUS43 KMKX 011400
RWRWI

WISCONSIN REGIONAL WEATHER ROUNDUP
NATIONAL WEATHER SERVICE MILWAUKEE/SULLIVAN WI
900 AM CDT SAT AUG 01 2015

NOTE: "FAIR" INDICATES FEW OR NO CLOUDS BELOW 12,000 FEET WITH NO
SIGNIFICANT WEATHER AND/OR OBSTRUCTIONS TO VISIBILITY.

WIZ001-002-006>008-014>016-023>028-011500-
NORTHWEST WISCONSIN

CITY           SKY/WX    TMP DP  RH WIND       PRES   REMARKS
SUPERIOR ARPT  SUNNY     65  56  73 SW6       29.93F
ASHLAND        SUNNY     69  56  62 VRB6      29.93S
HAYWARD        SUNNY     69  51  52 NW5       29.96F
SIREN          SUNNY     67  57  70 W3        29.97S
CUMBERLAND     SUNNY     64  59  82 CALM      29.97F
RICE LAKE      SUNNY     65  58  78 CALM      29.98F
CHETEK         SUNNY     67  58  72 MISG      29.97S
LADYSMITH      SUNNY     69  52  56 NW5       29.99R
EAU CLAIRE     NOT AVBL
MENOMONIE      MOSUNNY   68  60  75 CALM      29.98S
NEW RICHMOND   SUNNY     70  58  66 CALM      29.98S
OSCEOLA        MOSUNNY   68  64  88 CALM      30.00S
$$

WIZ003>005-009-010-017-018-011500-
NORTH CENTRAL WISCONSIN

CITY           SKY/WX    TMP DP  RH WIND       PRES   REMARKS
MANITOWISH WTR SUNNY     63  55  75 W6        29.94S
ARBOR VITAE    SUNNY     63  55  73 W6        29.94S
WOODRUFF       SUNNY     63  55  73 W6        29.94S
RHINELANDER    SUNNY     65  54  67 W7        29.95S
EAGLE RIVER    SUNNY     64  53  66 NW9       29.94R
LAND O LAKES   SUNNY     65  52  61 NW8       29.94S
PHILLIPS       SUNNY     63  53  71 NW6       29.96S
TOMAHAWK       SUNNY     62  53  73 W7        29.97R
MEDFORD        SUNNY     66  53  63 NW9       29.97S
MERRILL        NOT AVBL
$$

WIZ029-030-035-036-043>047-011500-
CENTRAL WISCONSIN

CITY           SKY/WX    TMP DP  RH WIND       PRES   REMARKS
WAUSAU         SUNNY     69  51  52 NW14      29.95R
MOSINEE        MOSUNNY   68  54  60 NW7       29.98R
MARSHFIELD     PTSUNNY   69  52  54 NW6       29.98S
STEVENS POINT  MOSUNNY   67  51  57 NW5       29.97S
WAUPACA        MOSUNNY   71  54  55 W7        29.96S
WAUTOMA        NOT AVBL
WISC RAPIDS    MOSUNNY   69  53  56 NW6       29.99R
CAMP DOUGLAS   NOT AVBL
$$

WIZ011>013-019>022-031-037>040-048>050-011500-
NORTHEAST WISCONSIN

CITY           SKY/WX    TMP DP  RH WIND       PRES   REMARKS
ANTIGO         SUNNY     63  54  72 NW10      29.95S
SHAWANO        SUNNY     68  54  61 W8        29.94S
OCONTO         SUNNY     68  55  62 W8        29.90S
STURGEON BAY   SUNNY     66  54  63 W7        29.92F
GREEN BAY      SUNNY     70  56  61 NW9       29.93S
MANITOWOC      NOT AVBL
APPLETON       MOSUNNY   70  52  52 W8        29.95S
CLINTONVILLE   SUNNY     68  50  52 NW9       29.94R
OSHKOSH        MOSUNNY   70  53  54 W9        29.95S
$$

WIZ032>034-041-042-053>061-011500-
SOUTHWEST WISCONSIN

CITY           SKY/WX    TMP DP  RH WIND       PRES   REMARKS
LA CROSSE      MOSUNNY   72  60  66 S3        29.97S
SPARTA         MOSUNNY   67  57  68 CALM      29.98S
VIROQUA        MOSUNNY   69  60  73 SW5       30.00S
BOSCOBEL       PTSUNNY   71  62  73 CALM      29.99S
PRAIRIE DU CHI PTSUNNY   68  59  72 CALM      29.99S
PLATTEVILLE    MOSUNNY   68  63  84 CALM      30.01F
$$

WIZ056-057-062-063-064-067-068-011500-
SOUTH CENTRAL WISCONSIN

CITY           SKY/WX    TMP DP  RH WIND       PRES   REMARKS
REEDSBURG      CLOUDY    69  58  68 W3        29.98S
BARABOO/DELLS  CLOUDY    69  55  62 NW3       29.99R
LONE ROCK      NOT AVBL
MINERAL POINT  MOSUNNY   68  61  77 W5        30.01S
MADISON        PTSUNNY   70  58  65 CALM      29.99R
MIDDLETON      CLOUDY    71  57  61 W8        30.00S
WATERTOWN      SUNNY     69  60  72 W6        29.98S
MONROE         CLOUDY    66  59  77 SW8       30.00S
JANESVILLE     PTSUNNY   72  57  60 NW7       29.99S
$$

WIZ051-052-058>065-066-070>072-011500-
SOUTHEAST WISCONSIN

CITY           SKY/WX    TMP DP  RH WIND       PRES   REMARKS
MILWAUKEE      MOSUNNY   74  54  49 NW8       29.97R
WAUKESHA       MOSUNNY   68  55  64 W10G17    29.99S
MILWAUKEE/TIMM SUNNY     72  54  53 W8        29.98S
RACINE         SUNNY     73  56  54 W9        29.99R
BURLINGTON     SUNNY     70  55  59 W7        29.99R
KENOSHA        SUNNY     73  59  61 W10       29.98S
FOND DU LAC    MOSUNNY   72  54  53 NW10      29.96S
SHEBOYGAN      SUNNY     72  56  57 NW8       29.94S
WEST BEND      SUNNY     68  52  56 W8        29.97S
JUNEAU         MOSUNNY   65  58  78 W5        29.99S
$$

LSZ147-162-011500-
LAKE SUPERIOR

STATION/POSITION TIME  TEMP    WIND        PRES    WAVE
                       AIR SEA DIR/SP/G            HT/PER
                 (UTC) (F)     (DEG/KT/KT) (MB)    (FT/S)
W MID LAKE BUOY  1250   57 54  250/ 12/ 14 1011.7R   1/ 3
DEVILS ISLAND    1300   59     250/ 14/ 16 1012.6S
PORT WING        1300   63     250/  6/  9 1013.5S
SAXON HARBOR     1300   64                 1012.9
$$

LMZ867-665-643>646-011500-
LAKE MICHIGAN

STATION/POSITION TIME  TEMP    WIND        PRES    WAVE
                       AIR SEA DIR/SP/G            HT/PER
                 (UTC) (F)     (DEG/KT/KT) (MB)    (FT/S)
CHAMBERS ISLAND  1300   66     250/  4/  9 1011.9S
S GREEN BAY BUOY 1300   62 66  280/ 10/ 12 1014.1
N MID LAKE BUOY  1250   65 68  270/ 14/ 16 1010.9R   2/ 3
NORTHPORT PIER   1300   67     290/  6/ 10 1011.9S
SISTER BAY       1344   71     330/  7/  8   N/A
ALGOMA LAKESHORE 1327          310/  7/ 11   N/A
KEWAUNEE LAKESHO 1300   66     300/  7/ 11 1012.2R
SHEBOYGAN LAKESH 1300   69     270/ 10/ 11 1013.7R
PORT WASHINGTON  1300   72     270/  8/ 13 1014.6S
ATWATER BUOY     1300   67 63  270/ 12/ 16 1015.7R
MILWAUKEE LAKESH 1300   70     290/ 10/ 14   N/A
KENOSHA   LAKESH 1300   70     270/  9/ 11 1014.6S
$$

TC  - TEMPERATURE IN CELSIUS
VSB - VISIBILITY IN STATUTE MILES
WCI - WIND CHILL INDEX
HX  - HEAT INDEX



USA.gov is the U.S. government's official web portal to all federal, state and local government web resources and services.